TimeEST,TemperatureF,Dew PointF,Humidity,Sea Level PressureIn,VisibilityMPH,Wind Direction,Wind SpeedMPH,Gust SpeedMPH,PrecipitationIn,Events,Conditions,WindDirDegrees,DateUTC
12:51 AM,37.9,32.0,79,29.54,10.0,NW,5.8,-,N/A,,Partly Cloudy,320,2013-03-01 05:51:00
1:46 AM,37.4,32.0,81,29.53,10.0,NNW,6.9,-,N/A,,Overcast,330,2013-03-01 06:46:00
1:51 AM,37.0,32.0,82,29.53,10.0,NNW,6.9,-,N/A,,Mostly Cloudy,330,2013-03-01 06:51:00
2:06 AM,35.6,32.0,87,29.53,10.0,NNW,6.9,-,N/A,,Scattered Clouds,330,2013-03-01 07:06:00
2:15 AM,37.4,32.0,81,29.53,10.0,NNW,5.8,-,N/A,,Mostly Cloudy,340,2013-03-01 07:15:00
2:51 AM,37.9,33.1,83,29.54,10.0,NNW,8.1,-,N/A,,Overcast,330,2013-03-01 07:51:00
3:51 AM,37.9,33.1,83,29.55,10.0,NNW,4.6,-,N/A,,Overcast,340,2013-03-01 08:51:00
4:51 AM,37.9,33.1,83,29.56,10.0,WNW,3.5,-,N/A,,Overcast,300,2013-03-01 09:51:00
5:51 AM,36.0,32.0,86,29.57,10.0,North,5.8,-,N/A,,Mostly Cloudy,350,2013-03-01 10:51:00
6:17 AM,35.6,32.0,87,29.57,10.0,NW,5.8,-,N/A,,Scattered Clouds,320,2013-03-01 11:17:00
6:51 AM,36.0,32.0,86,29.58,10.0,WNW,4.6,-,N/A,,Scattered Clouds,300,2013-03-01 11:51:00
7:51 AM,39.0,32.0,76,29.61,10.0,NW,10.4,-,N/A,,Scattered Clouds,320,2013-03-01 12:51:00
8:51 AM,42.1,30.0,62,29.60,10.0,NNW,13.8,20.7,N/A,,Scattered Clouds,340,2013-03-01 13:51:00
9:51 AM,44.1,28.9,55,29.62,10.0,North,15.0,-,N/A,,Mostly Cloudy,350,2013-03-01 14:51:00
10:51 AM,45.0,28.0,52,29.62,10.0,NNW,12.7,-,N/A,,Scattered Clouds,340,2013-03-01 15:51:00
11:51 AM,46.0,27.0,47,29.62,10.0,North,16.1,21.9,N/A,,Mostly Cloudy,360,2013-03-01 16:51:00
12:51 PM,46.0,26.1,46,29.60,10.0,North,15.0,-,N/A,,Scattered Clouds,360,2013-03-01 17:51:00
1:51 PM,46.0,26.1,46,29.60,10.0,North,15.0,20.7,N/A,,Mostly Cloudy,360,2013-03-01 18:51:00
2:51 PM,45.0,25.0,46,29.61,10.0,North,12.7,20.7,N/A,,Mostly Cloudy,350,2013-03-01 19:51:00
3:51 PM,44.1,25.0,47,29.62,10.0,NNW,11.5,-,N/A,,Mostly Cloudy,330,2013-03-01 20:51:00
4:51 PM,42.1,26.1,53,29.65,10.0,North,15.0,-,N/A,,Mostly Cloudy,350,2013-03-01 21:51:00
5:51 PM,41.0,24.1,51,29.67,10.0,NNW,10.4,-,N/A,,Overcast,340,2013-03-01 22:51:00
6:51 PM,39.9,24.1,53,29.68,10.0,NNW,6.9,-,N/A,,Overcast,330,2013-03-01 23:51:00
7:51 PM,39.9,24.1,53,29.68,10.0,NW,6.9,-,N/A,,Overcast,310,2013-03-02 00:51:00
8:51 PM,39.9,24.1,53,29.68,10.0,NNW,6.9,-,N/A,,Overcast,330,2013-03-02 01:51:00
9:51 PM,39.0,25.0,57,29.68,10.0,NW,9.2,-,N/A,,Overcast,310,2013-03-02 02:51:00
10:51 PM,37.9,24.1,57,29.69,10.0,NW,8.1,-,N/A,,Overcast,320,2013-03-02 03:51:00
11:51 PM,37.9,24.1,57,29.68,10.0,NW,6.9,-,N/A,,Overcast,310,2013-03-02 04:51:00